{"data":{"norad_id":85151,"intl_designator":"","name":"UNKNOWN","alt_names":[],"object_type":"UNKNOWN","status":"UNKNOWN","operator":null,"country":null,"launch_date":null,"launch_site_code":null,"launch_vehicle":null,"mission":null,"orbit_class":"UNKNOWN","rcs_meters":null,"size_class":null,"mass_kg":null,"dimensions":null,"purposes":[],"wikipedia_slug":null,"has_3d_model":false,"image_url":null,"decayed_at":null,"tle_current":{"epoch":"2026-09-18T11:16:50.426976Z","epoch_age_seconds":193491,"freshness":"STALE","line1":"1 85151U          26261.47002809  .00013240  00000+0  13727-2 0  9998","line2":"2 85151  98.3809 145.4017 0007648 337.2090  22.8785 14.90114675521042","mean_motion":14.90114675,"eccentricity":0.0007648,"inclination_deg":98.3809,"raan_deg":145.4017,"arg_perigee_deg":337.209,"mean_anomaly_deg":22.8785,"bstar":0.0013727,"rev_number":52104,"period_min":96.636857831093,"perigee_km":592.2427281858,"apogee_km":602.91278147479,"semimajor_km":6975.7147548303,"source":"CELESTRAK","updated_at":"2026-09-20T09:00:32.446998Z"}}}